CPA211 OPKC-OBBI

Flight info

Callsign CPA211
Flight time N/A
Altitude 38000
Route MELOM A454 VUSET N571 MENSA/N0496F340 N571 IVOXI P699 ORMID M556 ORDIG
Aircraft B77W/H-SDE1E2E3FGHIJ2J3J4J5M1RWXY/LB1D1

Departure

Time 2026-05-07 04:38
Airport Jinnah International Airport (OPKC)

Arrival

Time N/A
Airport Bahrain International Airport (OBBI)
Time Latitude Longitude Altitude Speed Heading
2026-05-07 04:10 24.90215 67.16520 103 ft 0 kts 124°
2026-05-07 04:29 24.90217 67.16516 103 ft 3 kts 124°
2026-05-07 04:30 24.90268 67.16433 103 ft 3 kts 124°
2026-05-07 04:30 24.90280 67.16413 101 ft 3 kts 107°
2026-05-07 04:30 24.90282 67.16393 100 ft 0 kts 71°
2026-05-07 04:33 24.90283 67.16399 101 ft 4 kts 71°
2026-05-07 04:33 24.90305 67.16479 104 ft 18 kts 74°
2026-05-07 04:33 24.90348 67.16649 104 ft 25 kts 74°
2026-05-07 04:34 24.90394 67.16832 106 ft 25 kts 75°
2026-05-07 04:34 24.90442 67.17004 108 ft 22 kts 61°
2026-05-07 04:34 24.90552 67.17053 106 ft 16 kts 36°
2026-05-07 04:34 24.90596 67.17169 107 ft 17 kts 75°
2026-05-07 04:35 24.90628 67.17290 107 ft 17 kts 73°
2026-05-07 04:35 24.90674 67.17405 108 ft 17 kts 50°
2026-05-07 04:35 24.90749 67.17463 109 ft 0 kts 28°
2026-05-07 04:37 24.90785 67.17482 110 ft 11 kts 24°
2026-05-07 04:37 24.90856 67.17480 108 ft 11 kts 320°
2026-05-07 04:37 24.90857 67.17401 108 ft 11 kts 254°
2026-05-07 04:37 24.90818 67.17244 109 ft 35 kts 255°
2026-05-07 04:38 24.90699 67.16779 106 ft 97 kts 254°
2026-05-07 04:38 24.90459 67.15838 101 ft 156 kts 254°
2026-05-07 04:38 24.90127 67.14529 220 ft 189 kts 255°
2026-05-07 04:38 24.89769 67.13113 712 ft 193 kts 255°
2026-05-07 04:39 24.89421 67.11675 1308 ft 192 kts 250°
2026-05-07 04:39 24.88611 67.10502 1723 ft 200 kts 218°
2026-05-07 04:39 24.87474 67.09574 2119 ft 206 kts 222°
2026-05-07 04:39 24.86365 67.08555 2613 ft 210 kts 224°
2026-05-07 04:40 24.85261 67.07476 3093 ft 214 kts 224°
2026-05-07 04:40 24.84156 67.06348 3496 ft 224 kts 226°
2026-05-07 04:40 24.82976 67.05096 3678 ft 246 kts 226°
2026-05-07 04:40 24.81730 67.03751 4105 ft 257 kts 226°
2026-05-07 04:41 24.80443 67.02350 4647 ft 264 kts 226°
2026-05-07 04:41 24.79133 67.00913 5212 ft 268 kts 229°
2026-05-07 04:41 24.78167 66.99168 5605 ft 272 kts 259°
2026-05-07 04:41 24.78140 66.97116 6120 ft 270 kts 280°
2026-05-07 04:42 24.78378 66.95064 6614 ft 276 kts 279°
2026-05-07 04:42 24.78578 66.92944 7321 ft 274 kts 274°
2026-05-07 04:42 24.78547 66.90861 7929 ft 277 kts 269°
2026-05-07 04:42 24.78420 66.88732 8553 ft 280 kts 268°
2026-05-07 04:43 24.78277 66.86580 9176 ft 282 kts 269°
2026-05-07 04:43 24.78135 66.84417 9809 ft 284 kts 269°
2026-05-07 04:43 24.78000 66.82240 10397 ft 286 kts 270°
2026-05-07 04:43 24.77870 66.80062 11011 ft 289 kts 270°
2026-05-07 04:44 24.77744 66.77829 11578 ft 297 kts 271°
2026-05-07 04:44 24.77618 66.75526 12164 ft 304 kts 271°
2026-05-07 04:44 24.77491 66.73179 12887 ft 308 kts 271°
2026-05-07 04:44 24.77364 66.70815 13668 ft 311 kts 272°
2026-05-07 04:45 24.77238 66.68432 14365 ft 314 kts 271°
2026-05-07 04:45 24.77111 66.66020 15036 ft 318 kts 271°
2026-05-07 04:45 24.76984 66.63601 15701 ft 322 kts 271°
2026-05-07 04:45 24.76854 66.61125 16389 ft 326 kts 270°
2026-05-07 04:46 24.76723 66.58621 17082 ft 330 kts 270°
2026-05-07 04:46 24.76589 66.56078 17765 ft 335 kts 269°
2026-05-07 04:46 24.76453 66.53504 18391 ft 339 kts 269°
2026-05-07 04:46 24.76315 66.50910 19058 ft 340 kts 270°
2026-05-07 04:47 24.76176 66.48313 19767 ft 340 kts 270°
2026-05-07 04:47 24.76037 66.45713 20456 ft 341 kts 270°
2026-05-07 04:47 24.75897 66.43080 20960 ft 350 kts 270°
2026-05-07 04:47 24.75755 66.40360 21283 ft 364 kts 270°
2026-05-07 04:48 24.75606 66.37505 21410 ft 383 kts 270°
2026-05-07 04:48 24.75449 66.34529 21660 ft 397 kts 270°
2026-05-07 04:48 24.75284 66.31444 21876 ft 412 kts 270°
2026-05-07 04:48 24.75111 66.28232 21994 ft 428 kts 270°
2026-05-07 04:49 24.74931 66.24917 22089 ft 442 kts 270°
2026-05-07 04:49 24.74743 66.21488 22201 ft 455 kts 270°
2026-05-07 04:49 24.74549 66.17979 22404 ft 464 kts 270°
2026-05-07 04:49 24.74349 66.14416 22752 ft 468 kts 270°
2026-05-07 04:50 24.74148 66.10837 23246 ft 469 kts 270°
2026-05-07 04:50 24.73945 66.07254 23699 ft 470 kts 270°
2026-05-07 04:50 24.73741 66.03660 24104 ft 471 kts 270°
2026-05-07 04:50 24.73538 66.00062 24468 ft 472 kts 270°
2026-05-07 04:51 24.73337 65.96498 24823 ft 474 kts 270°
2026-05-07 04:51 24.73132 65.92874 25167 ft 476 kts 270°
2026-05-07 04:51 24.72925 65.89234 25495 ft 478 kts 270°
2026-05-07 04:51 24.72717 65.85577 25824 ft 479 kts 270°
2026-05-07 04:52 24.72507 65.81915 26152 ft 481 kts 270°
2026-05-07 04:52 24.72295 65.78242 26466 ft 482 kts 270°
2026-05-07 04:52 24.72082 65.74555 26762 ft 483 kts 269°
2026-05-07 04:52 24.71867 65.70864 27036 ft 485 kts 269°
2026-05-07 04:53 24.71651 65.67152 27311 ft 486 kts 269°
2026-05-07 04:53 24.71433 65.63451 27694 ft 484 kts 269°
2026-05-07 04:53 24.71216 65.59765 28142 ft 481 kts 269°
2026-05-07 04:53 24.70998 65.56095 28612 ft 479 kts 269°
2026-05-07 04:54 24.70854 65.53674 28918 ft 477 kts 269°
2026-05-07 04:54 24.70567 65.48861 29522 ft 474 kts 269°
2026-05-07 04:54 24.70421 65.46420 29836 ft 473 kts 269°
2026-05-07 04:54 24.70205 65.42813 30239 ft 471 kts 269°
2026-05-07 04:55 24.69989 65.39218 30592 ft 470 kts 269°
2026-05-07 04:55 24.69772 65.35632 30932 ft 470 kts 269°
2026-05-07 04:55 24.69555 65.32051 31292 ft 469 kts 269°
2026-05-07 04:55 24.69341 65.28522 31640 ft 468 kts 269°
2026-05-07 04:56 24.69122 65.24943 31947 ft 468 kts 269°
2026-05-07 04:56 24.68903 65.21372 32270 ft 467 kts 269°
2026-05-07 04:56 24.68683 65.17803 32643 ft 466 kts 269°
2026-05-07 04:56 24.68463 65.14253 33003 ft 465 kts 269°
2026-05-07 04:57 24.68243 65.10711 33345 ft 464 kts 269°
2026-05-07 04:57 24.68022 65.07183 33783 ft 461 kts 269°
2026-05-07 04:57 24.67802 65.03678 34170 ft 457 kts 269°
2026-05-07 04:57 24.67583 65.00194 34466 ft 456 kts 269°
2026-05-07 04:58 24.67365 64.96717 34715 ft 456 kts 268°
2026-05-07 04:58 24.67145 64.93239 34962 ft 456 kts 268°
2026-05-07 04:58 24.66925 64.89766 35231 ft 455 kts 268°
2026-05-07 04:58 24.66707 64.86341 35506 ft 453 kts 268°
2026-05-07 04:59 24.66486 64.82890 35777 ft 452 kts 268°
2026-05-07 04:59 24.66266 64.79461 36142 ft 448 kts 268°
2026-05-07 04:59 24.66046 64.76056 36521 ft 444 kts 268°
2026-05-07 04:59 24.65827 64.72672 36799 ft 443 kts 267°
2026-05-07 05:00 24.65607 64.69284 37007 ft 443 kts 267°
2026-05-07 05:00 24.65388 64.65906 37187 ft 444 kts 267°
2026-05-07 05:00 24.65167 64.62518 37334 ft 445 kts 267°
2026-05-07 05:00 24.64945 64.59122 37476 ft 446 kts 267°
2026-05-07 05:01 24.64721 64.55718 37590 ft 447 kts 267°
2026-05-07 05:01 24.64496 64.52303 37695 ft 448 kts 267°
2026-05-07 05:01 24.64040 64.45434 37824 ft 452 kts 267°
2026-05-07 05:02 24.63578 64.38518 37820 ft 455 kts 267°
2026-05-07 05:02 24.63109 64.31551 37820 ft 458 kts 267°
2026-05-07 05:03 24.62637 64.24586 37833 ft 461 kts 267°
2026-05-07 05:03 24.62156 64.17532 37819 ft 464 kts 267°
2026-05-07 05:04 24.61669 64.10447 37813 ft 466 kts 267°
2026-05-07 05:04 24.61177 64.03333 37805 ft 467 kts 266°
2026-05-07 05:05 24.60680 63.96199 37825 ft 469 kts 266°
2026-05-07 05:05 24.60178 63.89044 37822 ft 470 kts 266°
2026-05-07 05:06 24.59671 63.81863 37818 ft 472 kts 266°
2026-05-07 05:06 24.59160 63.74673 37812 ft 473 kts 266°
2026-05-07 05:07 24.58647 63.67502 37816 ft 473 kts 266°
2026-05-07 05:07 24.58128 63.60293 37815 ft 474 kts 266°
2026-05-07 05:08 24.57600 63.53013 37823 ft 475 kts 266°
2026-05-07 05:08 24.57071 63.45773 37814 ft 475 kts 266°
2026-05-07 05:09 24.56539 63.38535 37816 ft 476 kts 266°
2026-05-07 05:09 24.56007 63.31336 37820 ft 476 kts 266°
2026-05-07 05:10 24.55466 63.24076 37821 ft 476 kts 266°
2026-05-07 05:10 24.54923 63.16831 37822 ft 476 kts 266°
2026-05-07 05:11 24.54375 63.09569 37810 ft 476 kts 266°
2026-05-07 05:11 24.53825 63.02323 37821 ft 476 kts 266°
2026-05-07 05:12 24.53271 62.95069 37816 ft 476 kts 266°
2026-05-07 05:12 24.52714 62.87822 37821 ft 476 kts 266°
2026-05-07 05:13 24.52157 62.80618 37810 ft 476 kts 266°
2026-05-07 05:13 24.51592 62.73368 37819 ft 476 kts 266°
2026-05-07 05:14 24.51025 62.66121 37818 ft 477 kts 266°
2026-05-07 05:14 24.50452 62.58859 37824 ft 477 kts 266°
2026-05-07 05:15 24.49877 62.51612 37812 ft 476 kts 266°
2026-05-07 05:15 24.49299 62.44367 37817 ft 476 kts 265°
2026-05-07 05:16 24.48718 62.37122 37816 ft 476 kts 265°
2026-05-07 05:16 24.48133 62.29883 37816 ft 476 kts 265°
2026-05-07 05:17 24.47545 62.22647 37822 ft 476 kts 265°
2026-05-07 05:17 24.46958 62.15458 37823 ft 476 kts 265°
2026-05-07 05:18 24.46363 62.08223 37824 ft 476 kts 265°
2026-05-07 05:18 24.45764 62.00982 37826 ft 476 kts 265°
2026-05-07 05:19 24.45162 61.93743 37822 ft 476 kts 265°
2026-05-07 05:19 24.44556 61.86488 37818 ft 477 kts 265°
2026-05-07 05:20 24.44069 61.80706 37823 ft 477 kts 265°
2026-05-07 05:20 24.43456 61.73452 37822 ft 477 kts 265°
2026-05-07 05:21 24.42530 61.62574 37818 ft 478 kts 265°
2026-05-07 05:22 24.41907 61.55303 37823 ft 478 kts 265°
2026-05-07 05:22 24.41285 61.48092 37827 ft 478 kts 265°
2026-05-07 05:23 24.40657 61.40836 37829 ft 478 kts 265°
2026-05-07 05:23 24.39986 61.33559 37831 ft 478 kts 263°
2026-05-07 05:24 24.38640 61.26405 37835 ft 479 kts 258°
2026-05-07 05:24 24.37116 61.19283 37831 ft 479 kts 258°
2026-05-07 05:25 24.35607 61.12163 37828 ft 479 kts 258°
2026-05-07 05:25 24.34114 61.05040 37832 ft 479 kts 258°
2026-05-07 05:26 24.32623 60.97909 37831 ft 480 kts 258°
2026-05-07 05:26 24.31137 60.90817 37835 ft 480 kts 258°
2026-05-07 05:27 24.29635 60.83673 37834 ft 480 kts 258°
2026-05-07 05:27 24.28129 60.76531 37831 ft 481 kts 258°
2026-05-07 05:28 24.26618 60.69382 37832 ft 481 kts 257°
2026-05-07 05:28 24.25106 60.62245 37837 ft 481 kts 257°
2026-05-07 05:29 24.23590 60.55106 37839 ft 481 kts 257°
2026-05-07 05:29 24.22068 60.47959 37838 ft 481 kts 257°
2026-05-07 05:30 24.20544 60.40819 37842 ft 481 kts 257°
2026-05-07 05:30 24.19019 60.33691 37841 ft 481 kts 257°
2026-05-07 05:31 24.17489 60.26556 37837 ft 480 kts 257°
2026-05-07 05:31 24.15958 60.19431 37839 ft 480 kts 257°
2026-05-07 05:32 24.14427 60.12327 37838 ft 480 kts 257°
2026-05-07 05:32 24.12902 60.05268 37844 ft 480 kts 257°
2026-05-07 05:33 24.11363 59.98160 37843 ft 480 kts 257°
2026-05-07 05:33 24.09830 59.91097 37845 ft 480 kts 257°
2026-05-07 05:34 24.08286 59.83995 37842 ft 480 kts 257°
2026-05-07 05:34 24.06735 59.76885 37845 ft 480 kts 257°
2026-05-07 05:35 24.05183 59.69784 37843 ft 480 kts 257°
2026-05-07 05:35 24.03627 59.62679 37845 ft 480 kts 257°
2026-05-07 05:36 24.02066 59.55569 37848 ft 480 kts 257°
2026-05-07 05:36 24.00503 59.48467 37846 ft 481 kts 257°
2026-05-07 05:37 23.98935 59.41360 37846 ft 481 kts 257°
2026-05-07 05:37 23.97364 59.34255 37845 ft 481 kts 257°
2026-05-07 05:38 23.95790 59.27148 37844 ft 481 kts 257°
2026-05-07 05:38 23.94224 59.20087 37845 ft 480 kts 258°
2026-05-07 05:38 23.93787 59.16480 37840 ft 480 kts 269°
2026-05-07 05:39 23.94007 59.12843 37851 ft 480 kts 278°
2026-05-07 05:39 23.95955 59.05870 37853 ft 482 kts 293°
2026-05-07 05:40 23.98891 58.99254 37843 ft 485 kts 294°
2026-05-07 05:40 24.01330 58.93733 37856 ft 486 kts 293°
2026-05-07 05:41 24.04209 58.87040 37848 ft 487 kts 293°
2026-05-07 05:41 24.07071 58.80312 37845 ft 487 kts 293°
2026-05-07 05:42 24.09933 58.73579 37847 ft 487 kts 293°
2026-05-07 05:42 24.12792 58.66853 37846 ft 487 kts 293°
2026-05-07 05:43 24.15648 58.60121 37845 ft 487 kts 293°
2026-05-07 05:43 24.18496 58.53394 37847 ft 487 kts 293°
2026-05-07 05:44 24.21340 58.46667 37842 ft 486 kts 293°
2026-05-07 05:44 24.24176 58.39948 37842 ft 485 kts 293°
2026-05-07 05:45 24.27002 58.33244 37846 ft 485 kts 292°
2026-05-07 05:45 24.29810 58.26573 37844 ft 484 kts 292°
2026-05-07 05:46 24.32646 58.19824 37842 ft 484 kts 292°
2026-05-07 05:46 24.35458 58.13122 37842 ft 484 kts 292°
2026-05-07 05:47 24.38253 58.06452 37849 ft 484 kts 292°
2026-05-07 05:47 24.41062 57.99737 37843 ft 484 kts 292°
2026-05-07 05:48 24.43866 57.93023 37839 ft 484 kts 292°
2026-05-07 05:48 24.46668 57.86306 37837 ft 484 kts 292°
2026-05-07 05:49 24.49465 57.79590 37844 ft 484 kts 292°
2026-05-07 05:49 24.52163 57.72818 37842 ft 484 kts 290°
2026-05-07 05:50 24.54722 57.65990 37844 ft 484 kts 290°
2026-05-07 05:50 24.57290 57.59156 37837 ft 484 kts 290°
2026-05-07 05:51 24.59863 57.52368 37836 ft 484 kts 290°
2026-05-07 05:51 24.62458 57.45528 37838 ft 485 kts 290°
2026-05-07 05:52 24.65046 57.38688 37837 ft 485 kts 290°
2026-05-07 05:52 24.67632 57.31838 37833 ft 485 kts 290°
2026-05-07 05:53 24.70212 57.24980 37852 ft 485 kts 290°
2026-05-07 05:53 24.72788 57.18118 37837 ft 485 kts 290°
2026-05-07 05:54 24.75358 57.11261 37829 ft 484 kts 290°
2026-05-07 05:54 24.77923 57.04408 37833 ft 484 kts 290°
2026-05-07 05:55 24.80481 56.97562 37840 ft 483 kts 290°
2026-05-07 05:55 24.83035 56.90716 37833 ft 483 kts 290°
2026-05-07 05:56 24.85587 56.83864 37850 ft 483 kts 290°
2026-05-07 05:56 24.88128 56.77029 37846 ft 482 kts 290°
2026-05-07 05:57 24.90666 56.70192 37837 ft 482 kts 290°
2026-05-07 05:57 24.93200 56.63353 37825 ft 481 kts 290°
2026-05-07 05:58 24.95727 56.56526 37818 ft 481 kts 289°
2026-05-07 05:58 24.97990 56.49664 37836 ft 479 kts 286°
2026-05-07 05:59 25.00074 56.42691 37836 ft 479 kts 286°
2026-05-07 05:59 25.02218 56.35572 37839 ft 480 kts 286°
2026-05-07 06:00 25.04336 56.28593 37828 ft 479 kts 286°
2026-05-07 06:00 25.06434 56.21601 37844 ft 479 kts 285°
2026-05-07 06:01 25.08517 56.14632 37842 ft 478 kts 285°
2026-05-07 06:01 25.10261 56.07572 37849 ft 476 kts 277°
2026-05-07 06:02 25.11146 56.00313 37455 ft 481 kts 275°
2026-05-07 06:02 25.11573 55.96647 37020 ft 482 kts 276°
2026-05-07 06:02 25.12011 55.92986 36602 ft 480 kts 276°
2026-05-07 06:02 25.12453 55.89369 36189 ft 477 kts 276°
2026-05-07 06:03 25.12901 55.85747 35795 ft 476 kts 276°
2026-05-07 06:03 25.13347 55.82128 35399 ft 475 kts 276°
2026-05-07 06:03 25.13792 55.78515 35009 ft 474 kts 276°
2026-05-07 06:03 25.14337 55.74922 34635 ft 475 kts 280°
2026-05-07 06:04 25.15065 55.71358 34248 ft 478 kts 281°
2026-05-07 06:04 25.15822 55.67761 33936 ft 482 kts 281°
2026-05-07 06:04 25.16579 55.64155 33875 ft 483 kts 281°
2026-05-07 06:05 25.18076 55.56890 33866 ft 486 kts 281°
2026-05-07 06:05 25.19567 55.49559 33858 ft 486 kts 280°
2026-05-07 06:06 25.20405 55.42152 33858 ft 482 kts 270°
2026-05-07 06:06 25.20097 55.34775 33857 ft 481 kts 261°
2026-05-07 06:07 25.18972 55.27497 33859 ft 480 kts 259°
2026-05-07 06:07 25.17831 55.20219 33860 ft 481 kts 260°
2026-05-07 06:08 25.16749 55.12980 33866 ft 481 kts 261°
2026-05-07 06:08 25.15996 55.05628 33879 ft 482 kts 263°
2026-05-07 06:09 25.15331 54.98272 33883 ft 482 kts 266°
2026-05-07 06:09 25.15478 54.90857 33874 ft 484 kts 274°
2026-05-07 06:10 25.16524 54.83510 33864 ft 485 kts 278°
2026-05-07 06:10 25.17660 54.76216 33865 ft 485 kts 277°
2026-05-07 06:11 25.18762 54.68876 33872 ft 485 kts 277°
2026-05-07 06:11 25.19846 54.61526 33865 ft 485 kts 277°
2026-05-07 06:12 25.20934 54.54178 33862 ft 485 kts 278°
2026-05-07 06:12 25.22568 54.46947 33867 ft 486 kts 283°
2026-05-07 06:13 25.24427 54.39759 33869 ft 487 kts 283°
2026-05-07 06:13 25.25946 54.33734 33874 ft 486 kts 283°
2026-05-07 06:14 25.27738 54.26545 33858 ft 485 kts 283°
2026-05-07 06:14 25.29521 54.19366 33863 ft 484 kts 282°
2026-05-07 06:15 25.31292 54.12205 33854 ft 483 kts 282°
2026-05-07 06:15 25.32854 54.04983 33863 ft 481 kts 280°
2026-05-07 06:16 25.34340 53.97768 33864 ft 481 kts 280°
2026-05-07 06:16 25.35862 53.90559 33863 ft 482 kts 280°
2026-05-07 06:17 25.37390 53.83358 33875 ft 481 kts 280°
2026-05-07 06:17 25.38894 53.76156 33863 ft 480 kts 280°
2026-05-07 06:18 25.40389 53.68959 33868 ft 479 kts 280°
2026-05-07 06:18 25.41879 53.61781 33856 ft 478 kts 280°
2026-05-07 06:19 25.43370 53.54604 33870 ft 478 kts 280°
2026-05-07 06:19 25.44854 53.47487 33863 ft 478 kts 280°
2026-05-07 06:20 25.46345 53.40318 33858 ft 478 kts 280°
2026-05-07 06:20 25.47832 53.33142 33858 ft 478 kts 280°
2026-05-07 06:21 25.49314 53.25977 33860 ft 477 kts 280°
2026-05-07 06:21 25.50787 53.18826 33860 ft 476 kts 280°
2026-05-07 06:22 25.52256 53.11673 33859 ft 476 kts 280°
2026-05-07 06:22 25.54444 53.00986 33863 ft 476 kts 280°
2026-05-07 06:23 25.55987 52.93842 33858 ft 478 kts 284°
2026-05-07 06:23 25.58383 52.86943 33877 ft 483 kts 292°
2026-05-07 06:24 25.61571 52.80370 33861 ft 484 kts 294°
2026-05-07 06:24 25.64815 52.73822 33635 ft 484 kts 294°
2026-05-07 06:25 25.66426 52.70536 33028 ft 484 kts 294°
2026-05-07 06:25 25.68022 52.67261 32523 ft 481 kts 294°
2026-05-07 06:25 25.69582 52.64049 31985 ft 478 kts 294°
2026-05-07 06:25 25.71152 52.60812 31460 ft 475 kts 294°
2026-05-07 06:26 25.72734 52.57546 30930 ft 473 kts 294°
2026-05-07 06:26 25.74269 52.54378 30440 ft 471 kts 294°
2026-05-07 06:26 25.75819 52.51179 29948 ft 470 kts 294°
2026-05-07 06:26 25.77346 52.47985 29361 ft 468 kts 293°
2026-05-07 06:27 25.78844 52.44789 28779 ft 466 kts 293°
2026-05-07 06:27 25.80329 52.41598 28215 ft 465 kts 294°
2026-05-07 06:27 25.81816 52.38405 27669 ft 464 kts 294°
2026-05-07 06:27 25.83295 52.35238 27126 ft 463 kts 294°
2026-05-07 06:28 25.84778 52.32071 26601 ft 462 kts 294°
2026-05-07 06:28 25.86329 52.28953 26055 ft 462 kts 299°
2026-05-07 06:28 25.88137 52.25995 25547 ft 463 kts 303°
2026-05-07 06:28 25.90183 52.23239 25044 ft 463 kts 310°
2026-05-07 06:29 25.92382 52.20621 24551 ft 461 kts 310°
2026-05-07 06:29 25.94573 52.18027 24063 ft 459 kts 311°
2026-05-07 06:29 25.96722 52.15466 23583 ft 457 kts 311°
2026-05-07 06:29 25.98878 52.12875 23031 ft 454 kts 311°
2026-05-07 06:30 26.01008 52.10300 22459 ft 452 kts 310°
2026-05-07 06:30 26.03126 52.07734 21909 ft 448 kts 311°
2026-05-07 06:30 26.04518 52.06046 21538 ft 445 kts 311°